Location: Bord�res
(43.2000°N, 0.2167°W)
Time: 12:06:34
(UTC+00:00)

Cosmos 2242 Rocket - Pass Details

Date: 03 March 2021
Orbit: 617 x 652 km, 82.5° (Epoch: 20 April)

Event Time Altitude Azimuth Distance (km) Brightness Sun altitude
Rises 19:06:14 0° 355° (N) 2,957 7.2 -14.2°
Reaches altitude 10° 19:08:32 10° 359° (N) 2,037 6.3 -14.6°
Maximum altitude 19:12:59 59° 79° (E) 733 3.6 -15.4°
Drops below altitude 10° 19:17:23 10° 160° (SSE) 2,000 5.9 -16.2°
Enters shadow 19:19:25 - 164° (SSE) 2,814 6.7 -16.6°
